Terminal Aerodrome Forecast
Issued by NWS Topeka, KS

Home | Current Version | Previous Version | Text Only | Print | Product List | Glossary On
Versions: 1 2 3 4 5 6 7 8 9 10 11 12 13 14 15 16 17 18 19 20
000
FTUS43 KTOP 241120
TAFTOP
TAF
KTOP 241120Z 2412/2512 31013G30KT P6SM SKC
     FM241400 33023G36KT P6SM SKC
     FM242200 32013KT P6SM SKC
     FM250100 30007KT P6SM SKC=

USA.gov is the U.S. government's official web portal to all federal, state and local government web resources and services.